Date String (YYYY-MM-DD hh:mm:ss) UTC,Instrument flags,absolute air pressure of the measurement (hPa),sample flow rate (lpm),inlet stack bypass flow (lpm),air temperature of the measurement (°C),ambient temperature measured by the external sensor (°C),aerosol sample conditioner tube jacket temperature (°C),OPC LED temperature (°C),internal box temperature (°C),relative humidity of the measurement (%),span deviation,mass concentration of particles derived from Lorenz-Mie calculation of OPC scattering (μg/m³),mass concentration of particles derived from Lorenz-Mie calculation of OPC scattering (μg/m³),mass concentration of particles derived from Lorenz-Mie calculation of OPC scattering (μg/m³)
DateTimeUTC,F1_M11,P_M11,Q1_M11,Q2_M11,T1_M11,T2_M11,T3_M11,T4_M11,T5_M11,U1_M11,ZSPAN_M11,X0_M11,X2_M11,X1_M11
2023-08-30 06:00:00,SystemResetWarning,0835.5,5.00,000.00,028.3,027.1,000.0,036.8,030.0,27.7,0001.3,0008.75,0005.42,0005.00
2023-08-30 06:01:00,SystemResetWarning,0835.5,5.01,000.00,028.3,027.2,000.0,036.8,030.0,27.6,0001.0,0008.86,0005.43,0004.99
2023-08-30 06:02:00,SystemResetWarning,0835.5,5.00,000.00,028.4,027.2,000.0,036.8,030.0,27.6,0000.2,0009.37,0005.45,0005.00
2023-08-30 06:03:00,SystemResetWarning,0835.5,5.00,000.00,028.4,027.3,000.0,036.8,030.1,27.6,0000.6,0009.95,0005.47,0005.02
2023-08-30 06:04:00,SystemResetWarning,0835.5,5.00,000.00,028.4,027.3,000.0,036.8,030.1,27.4,0000.6,0009.99,0005.48,0005.02
2023-08-30 06:05:00,SystemResetWarning,0835.4,4.98,000.00,028.4,026.4,000.0,036.8,030.0,27.0,0000.2,0010.14,0005.54,0005.04
2023-08-30 06:06:00,SystemResetWarning,0835.3,5.00,000.00,028.3,024.7,000.0,036.7,029.7,28.0,0000.6,0010.39,0005.59,0005.05
2023-08-30 06:07:00,SystemResetWarning,0835.3,5.01,000.00,028.2,024.2,000.0,036.6,029.4,27.9,0000.6,0010.50,0005.60,0005.05
2023-08-30 06:08:00,SystemResetWarning,0835.2,5.01,000.00,028.1,024.4,000.0,036.6,029.3,27.6,0000.4,0010.20,0005.59,0005.06
2023-08-30 06:09:00,SystemResetWarning,0835.2,5.00,000.00,028.1,024.8,000.0,036.7,029.4,27.8,0000.6,0010.02,0005.59,0005.06
2023-08-30 06:10:00,SystemResetWarning,0835.2,5.01,000.00,028.0,025.2,000.0,036.7,029.5,27.8,0001.0,0011.51,0005.61,0005.06
2023-08-30 06:11:00,SystemResetWarning,0835.2,5.00,000.00,028.0,025.6,000.0,036.7,029.6,27.7,0001.3,0012.12,0005.62,0005.07
2023-08-30 06:12:00,SystemResetWarning,0835.2,5.00,000.00,028.1,025.9,000.0,036.7,029.6,27.5,0001.5,0012.03,0005.61,0005.07
2023-08-30 06:13:00,SystemResetWarning,0835.3,4.99,000.00,028.1,026.1,000.0,036.7,029.7,27.5,0001.6,0011.65,0005.63,0005.06
2023-08-30 06:14:00,SystemResetWarning,0835.3,5.01,000.00,028.1,026.4,000.0,036.7,029.7,27.4,0001.3,0011.21,0005.62,0005.05
2023-08-30 06:15:00,SystemResetWarning,0835.3,5.00,000.00,028.1,026.6,000.0,036.7,029.8,27.2,0001.5,0011.22,0005.62,0005.05
2023-08-30 06:16:00,SystemResetWarning,0835.3,5.00,000.00,028.2,026.7,000.0,036.7,029.9,27.4,0001.6,0011.23,0005.61,0005.04
2023-08-30 06:17:00,SystemResetWarning,0835.2,4.99,000.00,028.2,026.9,000.0,036.7,029.9,27.5,0001.0,0011.07,0005.58,0005.04
2023-08-30 06:18:00,SystemResetWarning,0835.3,4.99,000.00,028.2,027.0,000.0,036.7,029.9,27.4,0000.8,0011.03,0005.58,0005.05
2023-08-30 06:19:00,SystemResetWarning,0835.2,4.99,000.00,028.3,027.1,000.0,036.8,030.0,27.5,0000.9,0011.82,0005.62,0005.05
2023-08-30 06:20:00,SystemResetWarning,0835.2,5.00,000.00,028.3,027.1,000.0,036.8,030.0,27.5,0001.0,0012.12,0005.63,0005.05
2023-08-30 06:21:00,SystemResetWarning,0835.2,5.01,000.00,028.3,027.2,000.0,036.8,030.1,27.2,0001.1,0010.90,0005.64,0005.05
2023-08-30 06:22:00,SystemResetWarning,0835.2,5.01,000.00,028.4,027.3,000.0,036.8,030.1,26.9,0000.7,0010.30,0005.64,0005.05
2023-08-30 06:23:00,SystemResetWarning,0835.1,5.00,000.00,028.4,027.3,000.0,036.9,030.1,26.9,0000.9,0010.36,0005.64,0005.07
2023-08-30 06:24:00,SystemResetWarning,0835.1,5.00,000.00,028.4,027.4,000.0,036.9,030.1,26.9,0001.3,0010.28,0005.62,0005.07
2023-08-30 06:25:00,SystemResetWarning,0835.1,4.99,000.00,028.5,026.9,000.0,036.9,030.1,27.1,0001.3,0010.22,0005.64,0005.08
2023-08-30 06:26:00,SystemResetWarning,0835.1,4.99,000.00,028.4,025.0,000.0,036.7,029.8,26.9,0001.0,0010.20,0005.65,0005.09
2023-08-30 06:27:00,SystemResetWarning,0835.1,5.01,000.00,028.3,024.2,000.0,036.6,029.5,27.0,0001.2,0010.34,0005.65,0005.09
2023-08-30 06:28:00,SystemResetWarning,0835.0,5.01,000.00,028.2,024.3,000.0,036.7,029.3,27.3,0001.8,0010.72,0005.67,0005.09
2023-08-30 06:29:00,SystemResetWarning,0835.0,4.99,000.00,028.1,024.7,000.0,036.7,029.3,27.4,0002.0,0010.97,0005.69,0005.08
2023-08-30 06:30:00,SystemResetWarning,0835.0,5.00,000.00,028.1,025.1,000.0,036.7,029.4,27.2,0001.7,0010.51,0005.73,0005.10
2023-08-30 06:31:00,SystemResetWarning,0835.0,5.01,000.00,028.1,025.5,000.0,036.7,029.5,27.1,0001.5,0009.96,0005.71,0005.11
2023-08-30 06:32:00,SystemResetWarning,0835.0,5.00,000.00,028.1,025.8,000.0,036.7,029.6,27.1,0001.3,0009.82,0005.70,0005.11
2023-08-30 06:33:00,SystemResetWarning,0835.0,5.00,000.00,028.1,026.1,000.0,036.7,029.7,27.2,0001.5,0009.66,0005.67,0005.10
2023-08-30 06:34:00,SystemResetWarning,0835.0,4.99,000.00,028.1,026.3,000.0,036.7,029.7,27.1,0001.3,0010.29,0005.71,0005.10
2023-08-30 06:35:00,SystemResetWarning,0835.0,4.99,000.00,028.1,026.5,000.0,036.7,029.8,27.0,0001.2,0010.31,0005.72,0005.10
2023-08-30 06:36:00,SystemResetWarning,0835.0,5.00,000.00,028.2,026.7,000.0,036.7,029.8,27.1,0001.5,0010.35,0005.72,0005.10
2023-08-30 06:37:00,SystemResetWarning,0834.9,5.00,000.00,028.2,026.8,000.0,036.7,029.8,27.2,0001.4,0010.32,0005.72,0005.10
2023-08-30 06:38:00,SystemResetWarning,0834.9,5.01,000.00,028.2,026.9,000.0,036.8,029.9,27.2,0001.4,0010.37,0005.71,0005.10
2023-08-30 06:39:00,SystemResetWarning,0834.9,5.01,000.00,028.3,027.0,000.0,036.8,029.9,27.1,0000.9,0010.05,0005.71,0005.10
2023-08-30 06:40:00,SystemResetWarning,0834.9,5.00,000.00,028.3,027.1,000.0,036.8,030.0,26.9,0001.2,0009.73,0005.69,0005.11
2023-08-30 06:41:00,SystemResetWarning,0834.9,5.00,000.00,028.3,027.2,000.0,036.8,030.0,26.8,0001.2,0009.64,0005.66,0005.12
2023-08-30 06:42:00,SystemResetWarning,0834.9,5.00,000.00,028.4,027.2,000.0,036.8,030.0,26.8,0002.2,0009.57,0005.65,0005.11
2023-08-30 06:43:00,SystemResetWarning,0834.9,5.00,000.00,028.4,027.3,000.0,036.9,030.1,26.7,0002.4,0009.51,0005.63,0005.11
2023-08-30 06:44:00,SystemResetWarning,0834.9,5.00,000.00,028.4,027.3,000.0,036.9,030.1,26.7,0002.4,0009.64,0005.67,0005.11
2023-08-30 06:45:00,SystemResetWarning,0834.9,5.00,000.00,028.4,027.4,000.0,036.9,030.1,26.9,0002.1,0009.29,0005.68,0005.11
2023-08-30 06:46:00,SystemResetWarning,0834.9,5.00,000.00,028.5,027.4,000.0,036.9,030.2,27.1,0002.1,0009.12,0005.69,0005.12
2023-08-30 06:47:00,SystemResetWarning,0834.9,4.99,000.00,028.5,026.7,000.0,036.9,030.1,27.0,0001.8,0009.11,0005.70,0005.13
2023-08-30 06:48:00,SystemResetWarning,0835.3,5.00,000.00,028.4,024.8,000.0,036.8,029.8,27.0,0001.2,0009.09,0005.70,0005.14
2023-08-30 06:49:00,SystemResetWarning,0835.4,5.01,000.00,028.3,024.2,000.0,036.7,029.6,27.1,0000.9,0008.83,0005.68,0005.14
2023-08-30 06:50:00,SystemResetWarning,0835.4,5.02,000.00,028.2,024.4,000.0,036.7,029.4,27.1,0001.1,0008.69,0005.67,0005.14
2023-08-30 06:51:00,SystemResetWarning,0835.2,5.00,000.00,028.1,024.7,000.0,036.7,029.4,27.5,0001.2,0008.81,0005.69,0005.16
2023-08-30 06:52:00,SystemResetWarning,0835.3,5.00,000.00,028.1,025.1,000.0,036.7,029.5,27.9,0001.4,0008.84,0005.70,0005.15
2023-08-30 06:53:00,SystemResetWarning,0835.4,4.99,000.00,028.1,025.5,000.0,036.7,029.6,28.0,0000.9,0008.84,0005.70,0005.16
2023-08-30 06:54:00,SystemResetWarning,0835.4,5.00,000.00,028.1,025.8,000.0,036.8,029.7,28.1,0000.3,0008.96,0005.75,0005.18
2023-08-30 06:55:00,SystemResetWarning,0835.2,5.00,000.00,028.1,026.1,000.0,036.8,029.7,27.9,0000.2,0008.96,0005.76,0005.19
2023-08-30 06:56:00,SystemResetWarning,0835.2,4.99,000.00,028.2,026.3,000.0,036.8,029.8,27.8,-000.1,0008.81,0005.73,0005.20
2023-08-30 06:57:00,SystemResetWarning,0835.1,4.99,000.00,028.2,026.5,000.0,036.8,029.8,27.7,-000.1,0009.21,0005.72,0005.20
2023-08-30 06:58:00,SystemResetWarning,0835.0,5.00,000.00,028.2,026.7,000.0,036.8,029.9,27.6,0000.1,0009.62,0005.72,0005.20
2023-08-30 06:59:00,SystemResetWarning,0834.8,5.01,000.00,028.2,026.8,000.0,036.8,029.9,27.9,0000.4,0010.31,0005.69,0005.20
